[[{"header":{"parameterUnit":"m.s-1","parameterCategory":1,"la1":30.2991,"la2":30.254,"lo1":-89.0895,"lo2":-89.0444,"dy":0.0017,"dx":0.0017,"nx":28,"ny":28,"refTime":"2024-07-10T03:00:00:Z","depth":0,"parameterNumber":2,"parameterNumberName":"U-component_of_WINDS"},"data":[0,0,0,0,0,0,0,0,0,0,0,0,0,0,0,0,0,0,0,0,0,0,0,0,0,0,0,0,0,0,0,0,0,0,0,0,0,0,0,0,0,0,0,0,0,0,0,0,0,0,0,0,0,0,0,0,0,0,0.2641,0.264,0,0.2581,0.258,0.258,0.2487,0.2485,0.2483,0.2482,0.2423,0.2423,0.2423,0,0,0,0,0,0,0,0,0,0,0,0,0,0.2678,0.2678,0.2641,0.264,0.264,0.2581,0.258,0.2579,0.2487,0.2485,0.2483,0.2481,0.2423,0.2423,0.2423,0,0,0,0,0,0,0,0,0,0,0,0,0,0.2645,0.2678,0.2641,0.2586,0.2581,0.2581,0.258,0.2579,0.2487,0.2485,0.2482,0.248,0.2423,0.2423,0.2423,0.2474,0,0,0.2423,0.2423,0,0,0,0,0,0,0,0,0.2647,0.2644,0.2595,0.259,0.2584,0.2539,0.2572,0.2544,0.2488,0.2523,0.2482,0.2479,0.2464,0.246,0.2455,0.2471,0.2468,0.2423,0.2423,0.2423,0.2423,0,0,0,0,0,0,0,0.2649,0.2646,0.2617,0.2595,0.2588,0.2565,0.2558,0.2566,0.2508,0.252,0.2513,0.2507,0.246,0.2455,0.2453,0.2467,0.2423,0.2423,0.2423,0.2423,0.2521,0.2524,0,0,0,0,0,0,0.2659,0.2648,0.2619,0.2616,0.261,0.2567,0.2558,0.2556,0.2508,0.2498,0.2509,0.2503,0.2456,0.2453,0.245,0.2505,0.2423,0.2423,0.2423,0.2519,0.2522,0.2525,0,0,0,0,0,0,0.266,0.2658,0.2622,0.263,0.2624,0.2569,0.2567,0.2556,0.255,0.25,0.2489,0.2514,0.2454,0.245,0.2468,0.2502,0.2423,0.2423,0.2516,0.252,0.2523,0.2617,0,0,0,0,0,0,0.2662,0.2659,0.2677,0.2631,0.2624,0.264,0.2569,0.2557,0.255,0.2541,0.2502,0.2493,0.2452,0.2469,0.2468,0.2501,0.2423,0.2512,0.2517,0.2522,0.261,0.2623,0.2634,0,0,0,0,0,0.2664,0.2706,0.2678,0.2675,0.2645,0.2642,0.2638,0.2589,0.2553,0.2571,0.2539,0.2494,0.2499,0.2471,0.247,0.2503,0.251,0.2516,0.2522,0.2605,0.2621,0.2634,0,0,0,0,0,0,0.2758,0.2699,0.2667,0.2696,0.2675,0.2626,0.2647,0.2608,0.2597,0.2589,0.253,0.2522,0.2547,0.2527,0.2497,0.2549,0.2497,0.2503,0.2561,0.2576,0.2588,0.2592,0.2423,0,0,0,0,0,0.2782,0.2784,0.2733,0.2763,0.2754,0.2703,0.27,0.2664,0.264,0.2631,0.26,0.2579,0.2575,0.2574,0.2569,0.2607,0.2597,0.2629,0.2641,0.2651,0.2657,0.2675,0.2689,0.2544,0.2544,0.2544,0,0,0.2832,0.28,0.2805,0.2781,0.276,0.2765,0.2696,0.2703,0.2706,0.2632,0.2647,0.2623,0.2596,0.2624,0.2635,0.2608,0.2695,0.2659,0.2667,0.2667,0.2683,0.2697,0.2709,0.2548,0.2547,0.2546,0,0,0.2925,0.2901,0.2923,0.2904,0.2873,0.2838,0.2844,0.2802,0.2783,0.2796,0.2741,0.2744,0.2739,0.2722,0.2713,0.2799,0.2757,0.2799,0.2862,0.288,0.2892,0.2902,0.2932,0.2944,0.2805,0.2805,0.2805,0,0.2991,0.2994,0.294,0.295,0.2942,0.2874,0.2897,0.2881,0.285,0.2846,0.2816,0.2808,0.2786,0.2809,0.283,0.2825,0.2829,0.2803,0.2894,0.2904,0.2912,0.294,0.2952,0.281,0.281,0.2809,0.2809,0,0.3076,0.308,0.3101,0.3072,0.3066,0.3083,0.3032,0.3033,0.2998,0.2967,0.2981,0.2951,0.2938,0.2941,0.2907,0.2959,0.2943,0.2905,0.2852,0.2932,0.2957,0.2968,0.2818,0.2816,0.2814,0.2813,0,0,0.3226,0.3167,0.3176,0.3162,0.3123,0.3124,0.3139,0.3124,0.3126,0.3107,0.3117,0.3115,0.3079,0.3068,0.3032,0.3049,0.3118,0.3008,0.3006,0.3029,0.3173,0.3202,0.3216,0.3091,0.3093,0.3094,0.3175,0,0.3311,0.333,0.3282,0.3313,0.3315,0.3252,0.3264,0.3242,0.3214,0.3212,0.3181,0.318,0.3132,0.3126,0.3139,0.3107,0.3147,0.3101,0.31,0.31,0.3108,0.3229,0.3259,0.3338,0.3185,0.3187,0.3188,0,0.3412,0.3397,0.3428,0.3387,0.3386,0.3398,0.3381,0.338,0.3354,0.3332,0.3321,0.3278,0.3289,0.3239,0.3254,0.3223,0.322,0.3205,0.3207,0.3204,0.3149,0.323,0.3362,0.3373,0.3203,0.3202,0.3201,0,0.3517,0.3506,0.3522,0.3513,0.3465,0.3475,0.3456,0.3427,0.3421,0.3407,0.3403,0.3391,0.3384,0.3376,0.3331,0.3299,0.3352,0.3297,0.3334,0.3335,0.3348,0.3347,0.3481,0.3347,0.3347,0.3347,0.3346,0,0.3616,0.3638,0.3569,0.358,0.3602,0.3547,0.3571,0.3546,0.3521,0.3526,0.3471,0.3477,0.3418,0.3417,0.3383,0.34,0.3398,0.3381,0.3371,0.3385,0.3388,0.3382,0.3375,0.335,0.3349,0.3348,0.3348,0,0.3737,0.3692,0.3707,0.3661,0.3649,0.3668,0.3629,0.3637,0.3605,0.3612,0.3611,0.3561,0.3558,0.3513,0.35,0.3477,0.3508,0.3488,0.3516,0.351,0.3549,0.3546,0.3683,0.3698,0.3556,0.3557,0.3558,0,0.3803,0.3818,0.3773,0.3772,0.3755,0.3754,0.3748,0.3695,0.3691,0.3663,0.3674,0.3666,0.3657,0.3655,0.3618,0.3609,0.3588,0.3637,0.3586,0.36,0.3588,0.3587,0.3588,0.3648,0.3649,0.3651,0.3652,0,0.3924,0.3901,0.3894,0.3879,0.3873,0.3859,0.3842,0.3844,0.3786,0.3785,0.378,0.3773,0.376,0.3752,0.3736,0.3717,0.3675,0.3668,0.3676,0.369,0.3706,0.3697,0.3545,0.3665,0.3664,0.3663,0.3662,0.3662,0.4019,0.4029,0.3999,0.3993,0.3974,0.3959,0.3964,0.3933,0.3928,0.3912,0.3882,0.3882,0.3855,0.3829,0.3813,0.3813,0.3788,0.38,0.3802,0.3806,0.3813,0.3706,0.381,0.3809,0.3809,0.3809,0.3808,0,0.4136,0.4114,0.4109,0.4086,0.4081,0.4042,0.4021,0.4019,0.402,0.3998,0.399,0.3985,0.3978,0.3941,0.393,0.3937,0.3917,0.3936,0.3934,0.393,0.3837,0.3831,0.3951,0.3951,0.3951,0.3951,0.3951,0.3951,0.4197,0.4212,0.4185,0.4191,0.4168,0.4167,0.4158,0.4144,0.4127,0.4123,0.4117,0.4092,0.4065,0.4051,0.4043,0.4032,0.403,0.4055,0.4038,0.3951,0.3937,0.3924,0.3918,0.4055,0.4055,0.4132,0.4132,0.4133]},{"header":{"parameterUnit":"m.s-1","parameterCategory":1,"la1":30.2991,"la2":30.254,"lo1":-89.0895,"lo2":-89.0444,"dy":0.0017,"dx":0.0017,"nx":28,"ny":28,"refTime":"2024-07-10T03:00:00:Z","depth":0,"parameterNumber":3,"parameterNumberName":"V-component_of_WINDS"},"data":[0,0,0,0,0,0,0,0,0,0,0,0,0,0,0,0,0,0,0,0,0,0,0,0,0,0,0,0,0,0,0,0,0,0,0,0,0,0,0,0,0,0,0,0,0,0,0,0,0,0,0,0,0,0,0,0,0,0,1.0823,1.0823,0,1.0837,1.0838,1.0838,1.0878,1.0879,1.088,1.0881,1.0893,1.0893,1.0893,0,0,0,0,0,0,0,0,0,0,0,0,0,1.0829,1.0828,1.0823,1.0823,1.0823,1.0837,1.0838,1.0838,1.0878,1.0879,1.0881,1.0882,1.0894,1.0893,1.0892,0,0,0,0,0,0,0,0,0,0,0,0,0,1.0833,1.0828,1.0823,1.0845,1.0848,1.0837,1.0838,1.0838,1.0878,1.0879,1.0881,1.0882,1.0894,1.0893,1.0892,1.0861,0,0,1.089,1.089,0,0,0,0,0,0,0,0,1.0833,1.0833,1.0842,1.0844,1.0846,1.0858,1.0844,1.0845,1.0878,1.0866,1.0881,1.0883,1.088,1.0881,1.088,1.0861,1.0862,1.089,1.089,1.0889,1.0889,0,0,0,0,0,0,0,1.0832,1.0832,1.0829,1.0842,1.0845,1.0854,1.0856,1.0845,1.0866,1.0868,1.0871,1.0872,1.0882,1.0881,1.0881,1.0862,1.089,1.0889,1.0889,1.0889,1.0817,1.0815,0,0,0,0,0,0,1.0829,1.0832,1.0828,1.0829,1.0843,1.0853,1.0855,1.0853,1.0866,1.0869,1.0871,1.0874,1.0882,1.0882,1.0882,1.0844,1.0889,1.0889,1.0888,1.0818,1.0816,1.0815,0,0,0,0,0,0,1.0829,1.0828,1.0828,1.0831,1.0832,1.0851,1.0848,1.0852,1.0852,1.0868,1.0872,1.0866,1.0883,1.0883,1.0866,1.0845,1.0888,1.0887,1.082,1.0818,1.0816,1.077,0,0,0,0,0,0,1.0829,1.0828,1.0817,1.0831,1.0832,1.0812,1.0847,1.0851,1.085,1.0854,1.0865,1.0868,1.0884,1.0866,1.0865,1.0845,1.0887,1.0822,1.0819,1.0816,1.0773,1.0767,1.0761,0,0,0,0,0,1.0829,1.0803,1.0816,1.0815,1.0818,1.0811,1.0811,1.083,1.0849,1.0837,1.0848,1.0868,1.0848,1.0864,1.0863,1.0843,1.0823,1.082,1.0817,1.0776,1.0768,1.0761,0,0,0,0,0,0,1.0786,1.0806,1.082,1.0798,1.0802,1.0818,1.0803,1.0821,1.082,1.0824,1.0847,1.0849,1.0828,1.0834,1.0852,1.0812,1.0839,1.0835,1.0809,1.0801,1.0795,1.0793,1.0886,0,0,0,0,0,1.0774,1.0767,1.0785,1.0763,1.0765,1.0784,1.0781,1.0796,1.0801,1.0803,1.0812,1.0816,1.0811,1.0807,1.0803,1.0775,1.0777,1.076,1.0754,1.0749,1.0745,1.0729,1.0721,1.0804,1.0804,1.0804,0,0,1.0749,1.0759,1.0753,1.0755,1.076,1.0751,1.0785,1.0775,1.0768,1.0801,1.0785,1.0792,1.0798,1.0775,1.0766,1.0779,1.0723,1.0745,1.074,1.0739,1.0725,1.0717,1.071,1.0802,1.0802,1.0803,0,0,1.0698,1.0706,1.0688,1.0693,1.0701,1.0713,1.0709,1.0722,1.0728,1.0713,1.0737,1.0729,1.072,1.0722,1.0722,1.0673,1.069,1.0671,1.0637,1.0622,1.0615,1.0609,1.059,1.0583,1.0667,1.0667,1.0667,0,1.0665,1.0654,1.0677,1.0665,1.0664,1.0695,1.0677,1.068,1.0686,1.0684,1.07,1.0688,1.0694,1.0672,1.0659,1.0659,1.0654,1.0669,1.0614,1.0609,1.0604,1.0585,1.0578,1.0665,1.0665,1.0665,1.0665,0,1.0613,1.0605,1.059,1.0595,1.0593,1.0578,1.0597,1.0593,1.0608,1.0618,1.0602,1.061,1.0608,1.0604,1.0618,1.0583,1.0591,1.061,1.0637,1.0593,1.0576,1.0569,1.0661,1.0662,1.0663,1.0663,0,0,1.0534,1.0552,1.0546,1.0548,1.0559,1.0553,1.0539,1.0537,1.0532,1.0535,1.0523,1.0514,1.0532,1.0532,1.0547,1.0533,1.0491,1.0554,1.0555,1.054,1.0451,1.0435,1.0427,1.0504,1.0503,1.0502,1.045,0,1.0485,1.0462,1.0482,1.0456,1.0448,1.0477,1.0464,1.0469,1.0479,1.0473,1.0483,1.0476,1.0501,1.0501,1.0489,1.0499,1.0473,1.0503,1.0491,1.049,1.0487,1.0418,1.0402,1.0352,1.0444,1.0443,1.0442,0,1.0424,1.0424,1.0397,1.0409,1.0406,1.0395,1.0395,1.0389,1.0395,1.0403,1.0402,1.0421,1.0407,1.0435,1.0415,1.0435,1.0431,1.0435,1.0434,1.0432,1.0462,1.0412,1.0337,1.0328,1.0432,1.0433,1.0433,0,1.0367,1.0361,1.0343,1.0345,1.0359,1.035,1.0355,1.0362,1.036,1.0359,1.0358,1.0356,1.0354,1.0351,1.0368,1.0387,1.0345,1.0375,1.035,1.0349,1.0338,1.0338,1.0259,1.0339,1.0339,1.0339,1.034,0,1.0308,1.029,1.0318,1.0307,1.0286,1.031,1.0289,1.0297,1.0303,1.0293,1.0319,1.0309,1.0333,1.0325,1.0338,1.0319,1.0318,1.0323,1.0327,1.032,1.0319,1.0316,1.0319,1.0337,1.0338,1.0338,1.0339,0,1.024,1.0258,1.0241,1.0256,1.0259,1.0243,1.0256,1.0246,1.0258,1.0245,1.0243,1.0261,1.0253,1.0271,1.0265,1.0274,1.0246,1.0255,1.0244,1.0246,1.0219,1.022,1.0134,1.0123,1.0212,1.0211,1.021,0,1.0201,1.0187,1.0201,1.0197,1.0201,1.0193,1.0191,1.0214,1.021,1.0215,1.0204,1.0198,1.0195,1.0181,1.0193,1.0188,1.0197,1.0167,1.0196,1.019,1.0194,1.0194,1.0192,1.016,1.0159,1.0158,1.0158,0,1.0128,1.0138,1.0134,1.0133,1.013,1.013,1.0132,1.0127,1.015,1.0145,1.0138,1.0135,1.013,1.0123,1.0122,1.0126,1.0145,1.0149,1.0142,1.0134,1.0127,1.0128,1.0225,1.015,1.0151,1.0151,1.0152,1.0152,1.0072,1.0061,1.0068,1.0063,1.0067,1.0068,1.0059,1.007,1.0065,1.0062,1.0076,1.0065,1.007,1.007,1.0073,1.0064,1.0077,1.0069,1.0066,1.0063,1.0058,1.013,1.0064,1.0064,1.0064,1.0065,1.0065,0,0.9998,1.0005,1.0,1.0002,0.9998,1.0018,1.0021,1.0015,1.0006,1.001,1.0006,0.9997,0.9991,1.0002,0.9998,0.9988,0.9997,0.9986,0.9986,0.9986,1.0047,1.0052,0.9979,0.9979,0.9979,0.9979,0.9979,0.9979,0.996,0.9942,0.9952,0.9936,0.9943,0.9933,0.9933,0.9933,0.9937,0.9926,0.9921,0.9929,0.9936,0.9932,0.9926,0.993,0.9926,0.9912,0.9918,0.9974,0.9982,0.999,0.9995,0.9911,0.9911,0.9858,0.9858,0.9857]}]]